Nellis AFB, NV

10:16 AM PDT on May 27, 2017 (GMT -0700)
Nellis Air Force Base

Weather History for KLSV - March, 2014

Change the Weather History Date:

Monday, March 17, 2014

  Actual Average Record
Temperature  
Mean Temperature 67 °F -  
Max Temperature 84 °F 73 °F 89 °F (2007)
Min Temperature 50 °F 46 °F 33 °F (2002)
Cooling Degree Days 2    
Growing Degree Days 17 (Base 50)    
Moisture  
Dew Point 11 °F    
Average Humidity 14    
Maximum Humidity 28    
Minimum Humidity 4    
Precipitation  
Precipitation 0.00 in - - ()
Sea Level Pressure  
Sea Level Pressure 29.75 in    
Wind  
Wind Speed 9 mph (NNW)    
Max Wind Speed 31 mph    
Max Gust Speed 40 mph    
Visibility 10 miles    
Events      
Averages and records for this station are not official NWS values.
T = Trace of Precipitation, MM = Missing Value Source: NWS Daily Summary

Daily Weather History Graph

Daily Weather History Graph

Search for Another Location

Airport or City:

Trip Planner

Search our weather history database for the weather conditions in past years. The results will help you decide how hot, cold, wet, or windy it might be!

Date:

Astronomy

Mar. 17, 2014 Rise Set
Actual Time 6:47 AM PDT 6:49 PM PDT
Civil Twilight 6:22 AM PDT 7:15 PM PDT
Nautical Twilight 5:52 AM PDT 7:44 PM PDT
Astronomical Twilight 5:22 AM PDT 8:15 PM PDT
Moon 8:07 PM PDT (3/17) 7:08 AM PDT (3/17)
Length of Visible Light 12h 52m
Length of Day
12h 01m
Full, 99% of the Moon is Illuminated
Mar 17
Full
Mar 23
Last Quarter
Mar 30
New
Apr 7
First Quarter
Apr 15
Full

Hourly Weather History & Observations

Time (PDT) Temp. Dew Point Humidity Pressure Visibility Wind Dir Wind Speed Gust Speed Precip Events Conditions
12:58 AM 53.1 °F 17.8 °F 25% 29.99 in 10.0 mi NE 2.3 mph - N/A   Clear
1:58 AM 54.1 °F 17.8 °F 24% 29.96 in 10.0 mi NE 6.9 mph - N/A   Clear
2:58 AM 54.0 °F 17.2 °F 24% 29.92 in 10.0 mi NE 4.6 mph - N/A   Clear
3:58 AM 57.0 °F 15.4 °F 20% 29.86 in 10.0 mi NNE 2.3 mph - N/A   Clear
4:58 AM 50.9 °F 16.2 °F 25% 29.82 in 10.0 mi Variable 1.2 mph - N/A   Clear
5:58 AM 51.6 °F 19.2 °F 28% 29.79 in 10.0 mi Variable 3.5 mph - N/A   Clear
6:58 AM 50.5 °F 17.1 °F 27% 29.78 in 10.0 mi NE 10.4 mph - N/A   Clear
7:58 AM 57.2 °F 17.6 °F 21% 29.80 in 10.0 mi WSW 2.3 mph - N/A   Clear
8:58 AM 57.4 °F 20.1 °F 24% 29.79 in 10.0 mi Variable 2.3 mph - N/A   Clear
9:58 AM 64.8 °F 19.2 °F 17% 29.77 in 10.0 mi South 3.5 mph - N/A   Clear
10:58 AM 69.4 °F 17.2 °F 14% 29.75 in 10.0 mi NNW 1.2 mph - N/A   Clear
11:58 AM 72.9 °F 17.8 °F 12% 29.71 in 10.0 mi ENE 2.3 mph - N/A   Clear
12:58 PM 78.8 °F 19.6 °F 11% 29.67 in 10.0 mi SW 6.9 mph - N/A   Clear
1:45 PM 80.6 °F 15.8 °F 9% 29.67 in 10.0 mi SSW 13.8 mph 20.7 mph N/A   Clear
1:58 PM 81.1 °F 11.8 °F 7% 29.63 in 10.0 mi NW 9.2 mph - N/A   Clear
2:58 PM 83.7 °F 6.3 °F 5% 29.60 in 10.0 mi WNW 19.6 mph 27.6 mph N/A   Clear
3:58 PM 84.2 °F 4.6 °F 5% 29.57 in 10.0 mi WNW 27.6 mph 38.0 mph N/A   Clear
4:58 PM 83.1 °F -2.7 °F 4% 29.58 in 10.0 mi NW 29.9 mph 35.7 mph N/A   Clear
5:58 PM 81.0 °F 4.1 °F 5% 29.59 in 10.0 mi NNW 23.0 mph 31.1 mph N/A   Clear
6:58 PM 75.9 °F 0.5 °F 5% 29.65 in 10.0 mi WNW 23.0 mph 36.8 mph N/A   Clear
7:58 PM 72.5 °F -0.4 °F 6% 29.68 in 10.0 mi WNW 27.6 mph 36.8 mph N/A   Clear
8:56 PM 68.0 °F -0.4 °F 7% 29.75 in 10.0 mi North 12.7 mph 28.8 mph N/A   Clear
8:58 PM 68.9 °F -0.8 °F 6% 29.73 in 10.0 mi North 13.8 mph 25.3 mph N/A   Clear
9:58 PM 64.9 °F 11.3 °F 12% 29.75 in 10.0 mi NNE 27.6 mph 31.1 mph N/A   Clear
10:58 PM 62.1 °F 7.2 °F 11% 29.81 in 10.0 mi NNE 25.3 mph 39.1 mph N/A   Clear
11:58 PM 58.8 °F 6.4 °F 12% 29.85 in 10.0 mi NNE 31.1 mph 40.3 mph N/A   Clear